Change the Weather History Date:

Monday, October 1, 2012

  Actual Average Record
Temperature  
Mean Temperature 63 °F 69 °F  
Max Temperature 68 °F 82 °F 96 °F (1926)
Min Temperature 58 °F 57 °F 36 °F (1984)
Degree Days  
Heating Degree Days 2 1  
Month to date heating degree days 2 1  
Since 1 July heating degree days 5 7  
Cooling Degree Days 0 5  
Month to date cooling degree days 0 5  
Year to date cooling degree days 2373 2085  
Growing Degree Days 12 (Base 50)    
Moisture  
Dew Point 59 °F    
Average Humidity 91    
Maximum Humidity 100    
Minimum Humidity 81    
Precipitation  
Precipitation 0.59 in 0.14 in 1.53 in (1945)
Month to date precipitation 0.59 0.14  
Year to date precipitation 33.72 37.78  
Sea Level Pressure  
Sea Level Pressure 29.63 in    
Wind  
Wind Speed 11 mph (NNW)    
Max Wind Speed 26 mph    
Max Gust Speed 31 mph    
Visibility 7 miles    
Events Rain , Thunderstorm    
T = Trace of Precipitation, MM = Missing Value Source: NWS Daily Summary

Daily Weather History Graph

Daily Weather History Graph

Search for Another Location

Airport or City:

Trip Planner

Search our weather history database for the weather conditions in past years. The results will help you decide how hot, cold, wet, or windy it might be!

Date:

Astronomy

Oct. 01, 2012 Rise Set
Actual Time 6:58 AM CDT 6:47 PM CDT
Civil Twilight 6:33 AM CDT 7:12 PM CDT
Nautical Twilight 6:05 AM CDT 7:41 PM CDT
Astronomical Twilight 5:36 AM CDT 8:10 PM CDT
Moon 7:32 PM CDT (10/1) 8:21 AM CDT (10/1)
Length of Visible Light 12h 38m
Length of Day
11h 49m
Full, 98% of the Moon is Illuminated
Oct 1
Full
Oct 8
Last Quarter
Oct 15
New
Oct 21
First Quarter
Oct 29
Full

Hourly Weather History & Observations

Time (CDT) Temp. Dew Point Humidity Pressure Visibility Wind Dir Wind Speed Gust Speed Precip Events Conditions
12:53 AM 59.0 °F 57.0 °F 93% 29.60 in 4.0 mi North 20.7 mph 27.6 mph 0.00 in Rain Light Rain
1:53 AM 59.0 °F 57.0 °F 93% 29.59 in 4.0 mi NNE 18.4 mph 27.6 mph 0.00 in Rain Light Rain
3:53 AM 59.0 °F 57.0 °F 93% 29.58 in 3.0 mi North 16.1 mph - 0.00 in Rain Light Rain
4:04 AM 59.0 °F 57.2 °F 94% 29.56 in 2.5 mi North 13.8 mph 21.9 mph 0.00 in Rain Light Rain
4:44 AM 57.2 °F 57.2 °F 100% 29.55 in 1.5 mi North 17.3 mph - 0.20 in Rain Heavy Rain
4:53 AM 57.9 °F 57.0 °F 97% 29.57 in 2.5 mi North 16.1 mph - 0.23 in Rain Heavy Rain
5:12 AM 57.2 °F 57.2 °F 100% 29.55 in 5.0 mi North 18.4 mph 21.9 mph 0.01 in Rain , Thunderstorm Light Rain
5:50 AM 59.0 °F 57.2 °F 94% 29.54 in 1.8 mi North 18.4 mph 31.1 mph 0.22 in Rain , Thunderstorm Heavy Thunderstorms and Rain
5:53 AM 59.0 °F 57.9 °F 96% 29.57 in 1.2 mi North 16.1 mph 31.1 mph 0.26 in Rain , Thunderstorm Heavy Thunderstorms and Rain
6:02 AM 59.0 °F 57.2 °F 94% 29.57 in 3.0 mi North 11.5 mph 25.3 mph 0.04 in Rain , Thunderstorm Thunderstorms and Rain
6:30 AM 59.0 °F 57.2 °F 94% 29.56 in 6.0 mi North 18.4 mph 28.8 mph 0.07 in Rain Light Rain
6:42 AM 60.8 °F 57.2 °F 88% 29.57 in 10.0 mi North 15.0 mph 23.0 mph 0.07 in Rain , Thunderstorm Light Rain
6:51 AM 60.8 °F 57.2 °F 88% 29.57 in 10.0 mi North 13.8 mph - 0.07 in   Overcast
6:53 AM 60.1 °F 57.9 °F 93% 29.60 in 10.0 mi North 13.8 mph - 0.07 in   Overcast
6:55 AM 60.8 °F 57.2 °F 88% 29.57 in 10.0 mi North 16.1 mph - N/A   Overcast
7:24 AM 60.8 °F 59.0 °F 94% 29.58 in 10.0 mi North 16.1 mph 20.7 mph 0.01 in   Overcast
7:46 AM 60.8 °F 59.0 °F 94% 29.58 in 7.0 mi North 17.3 mph 20.7 mph 0.01 in   Overcast
7:53 AM 60.1 °F 59.0 °F 96% 29.60 in 6.0 mi North 16.1 mph - 0.01 in   Overcast
8:53 AM 61.0 °F 59.0 °F 93% 29.61 in 10.0 mi North 15.0 mph 20.7 mph N/A   Overcast
9:53 AM 61.0 °F 59.0 °F 93% 29.63 in 9.0 mi North 17.3 mph 23.0 mph 0.00 in Rain Light Rain
10:53 AM 62.1 °F 59.0 °F 90% 29.63 in 5.0 mi North 16.1 mph - 0.00 in Rain Light Rain
11:53 AM 62.1 °F 60.1 °F 93% 29.64 in 5.0 mi North 18.4 mph 24.2 mph 0.01 in Rain Light Rain
12:24 PM 62.6 °F 60.8 °F 94% 29.62 in 8.0 mi North 15.0 mph 23.0 mph 0.00 in Rain Light Rain
12:53 PM 62.1 °F 61.0 °F 96% 29.65 in 4.0 mi North 11.5 mph - 0.00 in Rain Light Rain
1:09 PM 62.6 °F 60.8 °F 94% 29.62 in 3.0 mi NNW 10.4 mph - 0.00 in Rain Light Rain
1:19 PM 62.6 °F 60.8 °F 94% 29.63 in 3.0 mi NNW 10.4 mph - 0.00 in Rain Light Rain
1:32 PM 64.4 °F 60.8 °F 88% 29.62 in 10.0 mi NNW 9.2 mph - 0.00 in   Overcast
1:53 PM 64.0 °F 61.0 °F 90% 29.65 in 8.0 mi NNW 11.5 mph - 0.00 in   Overcast
2:53 PM 66.0 °F 60.1 °F 81% 29.65 in 10.0 mi NNW 8.1 mph - N/A   Overcast
3:23 PM 66.2 °F 60.8 °F 83% 29.64 in 10.0 mi NNW 10.4 mph - N/A   Overcast
3:53 PM 66.9 °F 60.1 °F 79% 29.67 in 10.0 mi NNW 10.4 mph - N/A   Overcast
4:53 PM 66.9 °F 60.1 °F 79% 29.68 in 10.0 mi North 11.5 mph - N/A   Overcast
5:53 PM 66.2 °F 60.8 °F 83% 29.67 in 10.0 mi NNW 6.9 mph - N/A   Overcast
6:53 PM 66.0 °F 61.0 °F 84% 29.70 in 10.0 mi Calm Calm - N/A   Overcast
7:53 PM 64.0 °F 59.0 °F 84% 29.72 in 10.0 mi NW 6.9 mph - N/A   Mostly Cloudy
8:53 PM 63.0 °F 57.9 °F 84% 29.75 in 10.0 mi NW 6.9 mph - N/A   Clear
9:53 PM 64.0 °F 59.0 °F 84% 29.77 in 10.0 mi WNW 3.5 mph - N/A   Overcast
10:53 PM 63.0 °F 59.0 °F 87% 29.78 in 10.0 mi NNW 4.6 mph - N/A   Overcast
11:53 PM 62.1 °F 57.0 °F 84% 29.78 in 10.0 mi North 4.6 mph - N/A   Clear